STARLINK-5286 (55294 NORAD) Tracking and Keplerian Element Data

This shows tracking and keplerian element data for the satellite.

Feedback or suggestion? Click here.




ElementValue
Catalog55294
NameSTARLINK-5286
Epoch Orbit1705
Epoch Day127.07126471
Epoch Year2023
RAAN140.5377
Inclination69.9981
Eccentricity0.0003313
Argument of Perigee270.2981
Mean Anonmoly89.7798
Mean Motion14.98334067
Decay Rate3.62E-06
L11 55294U 23010AB 23127.07126471 .00000362 00000+0 38169-4 0 9995
L22 55294 69.9981 140.5377 0003313 270.2981 89.7798 14.98334067 17051



Live tracking and technical data element details for STARLINK-5286 (NORAD 55294). STARLINK-5286 can be tracked NOW for your location showing map with azimuth and elevation plus other details from your city location.







IsCatalogInMostPopularTable: catalog: 55294, numindb: -1

Insert: records affected: 1


GetName: 55294 STARLINK-5286

Hit Count: inserted at: Sun, 28 May 2023 07:45:40 GMT